Regional Weather Roundup
Issued by NWS

Home | Current Version | Previous Version | Graphics & Text | Print | Product List | Glossary On
Versions: 1 2 3 4 5 6 7 8 9 10 11 12 13 14 15 16 17 18 19 20 21 22 23 24 25 26 27 28 29 30 31 32 33 34 35 36 37 38 39 40 41 42 43 44 45 46 47 48 49 50
000
ASUS43 KMKX 181621
RWRWI

WISCONSIN REGIONAL WEATHER ROUNDUP
NATIONAL WEATHER SERVICE MILWAUKEE/SULLIVAN WI
1100 AM CDT FRI APR 18 2014

NOTE: "FAIR" INDICATES FEW OR NO CLOUDS BELOW 12,000 FEET WITH NO
SIGNIFICANT WEATHER AND/OR OBSTRUCTIONS TO VISIBILITY.

WIZ001-002-006>008-014>016-023>028-181700-
NORTHWEST WISCONSIN

CITY           SKY/WX    TMP DP  RH WIND       PRES   REMARKS
SUPERIOR ARPT  SUNNY     36  22  56 E9        30.42F WCI  29
ASHLAND        SUNNY     35  22  58 CALM      30.43R
HAYWARD        SUNNY     37  19  48 NE3       30.39S
SIREN          MOSUNNY   41  25  53 SE3       30.39R
RICE LAKE      MOSUNNY   37  27  66 CALM      30.40S
LADYSMITH      MOSUNNY   36  25  63 CALM      30.40S
EAU CLAIRE     PTSUNNY   41  26  55 E7        30.39S
MENOMONIE      MOSUNNY   38  28  67 NE6       30.39F WCI  34
NEW RICHMOND   MOSUNNY   41  27  57 E8        30.38R
OSCEOLA        CLOUDY    39  28  63 E5        30.41R
$$

WIZ003>005-009-010-017-018-181700-
NORTH CENTRAL WISCONSIN

CITY           SKY/WX    TMP DP  RH WIND       PRES   REMARKS
WOODRUFF       MOSUNNY   39  25  57 NW7       30.37R WCI  34
RHINELANDER    SUNNY     34  22  61 VRB7      30.36S WCI  28
EAGLE RIVER    CLOUDY    32  22  65 N6        30.36R WCI  27
LAND O LAKES   CLOUDY    32  24  72 N8        30.37R WCI  25
PHILLIPS       SUNNY     34  22  62 CALM      30.37S
TOMAHAWK       MOSUNNY   36  22  57 W3        30.36F
MEDFORD        MOSUNNY   35  24  62 N5        30.37R WCI  31
MERRILL        SUNNY     38  22  54 CALM      30.36F
$$

WIZ029-030-035-036-043>047-181700-
CENTRAL WISCONSIN

CITY           SKY/WX    TMP DP  RH WIND       PRES   REMARKS
WAUSAU         SUNNY     39  23  52 NW8G18    30.36S WCI  33
MOSINEE        SUNNY     39  27  60 N9        30.38S WCI  33
MARSHFIELD     SUNNY     41  27  57 NW8       30.37S
STEVENS POINT  SUNNY     40  23  52 NE6       30.38S
WAUPACA        SUNNY     45  25  45 N5        30.38S
WAUTOMA        SUNNY     44  25  47 NE8       30.38S
WISC RAPIDS    SUNNY     42  24  49 NW5       30.39S
CAMP DOUGLAS   SUNNY     45  25  45 VRB5      30.38F
$$

WIZ011>013-019>022-031-037>040-048>050-181700-
NORTHEAST WISCONSIN

CITY           SKY/WX    TMP DP  RH WIND       PRES   REMARKS
ANTIGO         SUNNY     36  24  63 NW8       30.36S WCI  29
STURGEON BAY   CLOUDY    37  25  60 NW6       30.39R WCI  33
GREEN BAY      NOT AVBL
MANITOWOC      CLOUDY    40  28  62 N8        30.39R WCI  34
APPLETON       PTSUNNY   39  27  60 NW9       30.38R WCI  33
CLINTONVILLE   MOSUNNY   41  27  56 CALM      30.37F
OSHKOSH        MOSUNNY   40  27  59 E5        30.38S
$$

WIZ032>034-041-042-053>061-181700-
SOUTHWEST WISCONSIN

CITY           SKY/WX    TMP DP  RH WIND       PRES   REMARKS
LA CROSSE      MOSUNNY   45  25  45 VRB5      30.38F
SPARTA         SUNNY     44  24  45 NE10      30.37F
VIROQUA        FAIR      42  28  58 NE5       30.36S
BOSCOBEL       SUNNY     46  26  45 NE7       30.39R
PRAIRIE DU CHI SUNNY     43  30  58 CALM      30.38S
PLATTEVILLE    FAIR      44  32  62 NE3       30.37S
$$

WIZ056-057-062-063-064-067-068-181700-
SOUTH CENTRAL WISCONSIN

CITY           SKY/WX    TMP DP  RH WIND       PRES   REMARKS
BARABOO/DELLS  SUNNY     42  28  57 NE5       30.38S
LONE ROCK      SUNNY     46  30  53 NE9       30.37F
WATERTOWN      MOSUNNY   42  32  65 N6        30.36S
MADISON        MOSUNNY   44  31  60 N5        30.39R
MIDDLETON      FAIR      44  30  57 E6        30.37F
MONROE         SUNNY     45  33  61 N8        30.35S
JANESVILLE     SUNNY     46  32  57 NE6       30.35S
$$

WIZ051-052-058>065-066-070>072-181700-
SOUTHEAST WISCONSIN

CITY           SKY/WX    TMP DP  RH WIND       PRES   REMARKS
MILWAUKEE      MOSUNNY   41  31  67 NE15G23   30.38S
WAUKESHA       PTSUNNY   43  32  65 N5        30.37R
MILWAUKEE/TIMM CLOUDY    43  32  65 NE6       30.37R
RACINE         SUNNY     43  30  60 N16       30.38R
BURLINGTON     MOSUNNY   45  34  66 N6        30.35S
KENOSHA        SUNNY     46  34  62 NE14G22   30.36R
FOND DU LAC    MOSUNNY   41  29  62 NE9       30.38S
SHEBOYGAN      CLOUDY    40  30  67 VRB5      30.37S
WEST BEND      CLOUDY    41  30  65 NW6       30.37S
JUNEAU         MOSUNNY   40  28  62 N6        30.39S
$$

LSZ147-162-181700-
LAKE SUPERIOR

STATION/POSITION TIME  TEMP    WIND        PRES    WAVE
                       AIR SEA DIR/SP/G            HT/PER
                 (UTC) (F)     (DEG/KT/KT) (MB)    (FT/S)
DEVILS ISLAND    1600   31      10/  5/  6 1031.6R
PORT WING        1500   32     340/  3/  3 1030.5R
SAXON HARBOR     1500             CALM     1030.1R
$$

LMZ867-665-643>646-181700-
LAKE MICHIGAN

STATION/POSITION TIME  TEMP    WIND        PRES    WAVE
                       AIR SEA DIR/SP/G            HT/PER
                 (UTC) (F)     (DEG/KT/KT) (MB)    (FT/S)
NORTHPORT PIER   1500   34     320/  5/  6 1028.1R
SISTER BAY       1523   43     310/  6/  6   N/A
KEWAUNEE LAKESHO 1500   36     310/  5/  7 1029.0R
SHEBOYGAN LAKESH 1600   36      50/ 10/ 11 1029.6R
PORT WASHINGTON  1540   38      50/ 10/ 12 1029.1R
MILWAUKEE LAKESH 1600   36      30/ 13/ 14   N/A
KENOSHA   LAKESH 1600   38      30/ 19/ 22   N/A
$$

TC  - TEMPERATURE IN CELSIUS
VSB - VISIBILITY IN STATUTE MILES
WCI - WIND CHILL INDEX
HX  - HEAT INDEX




USA.gov is the U.S. government's official web portal to all federal, state and local government web resources and services.